Content
SEND FEEDBACK

Daily
Averages
Monthly
Summary
Italy

BARI, ITALY


Home > Europe > Italy
Elevation: 144 feet     Latitude: 41 08N     Longitude: 016 47E

WEATHER
 
SELECT A DAY
Number of Records: 302,611;   Date Range: 7/1/96 - 11/27/14
 
SHARE

PRINT THIS DATA

[ ← Previous Day ]
WEATHER ALMANAC - NOVEMBER 13, 2013
[ Next Day → ]
[ °C ]   °F
Weather ElementAverageHighLow
Temperature62.3 °F66.2 °F (11:50 am)59 °F (6:20 pm)
Dewpoint61.3 °F64.4 °F (10:50 am)59 °F (4:20 pm)
Humidity96.8 %100 % (12:50 am)88 % (11:50 am)
Barometer29.96 in29.98 in (1:20 am)29.92 in (5:50 am)
Wind Speed4.2 mph9.2 mph (12:50 pm)
Weather ElementAverage
Visibility6.1 mi
Wind DirectionE (89.1 °)

Weather ElementTotal
Precipitation---
Heating Degree Days2.4 (Base 65)
Growing Degree Days12.6 (Base 50)
Averaged from 47 records on November 13, 2013
WEATHER CONDITIONS BREAKOUT
WIND DIRECTION BREAKOUT
WEATHER BY HOUR - NOVEMBER 13, 2013
[ °C ]   °F
Local TimeTemperatureDewpointHumidityBarometerVisibilityWind DirectionWind SpeedGust SpeedPrecipitationEventsConditions
12:50 AM62.6 °F62.6 °F100 %29.95 in5.0 miSSE (150°)4.6 mphRainLight Rain
1:20 AM62.6 °F62.6 °F100 %29.98 in5.0 miSE (140°)4.6 mphRainLight Rain
1:50 AM62.6 °F62.6 °F100 %29.98 in4.3 miESE (120°)4.6 mphRainRain
2:20 AM60.8 °F60.8 °F100 %29.95 in6.2 miCalmScattered Clouds
2:50 AM60.8 °F60.8 °F100 %29.95 in6.2 miVariable2.3 mphScattered Clouds
3:20 AM60.8 °F60.8 °F100 %29.95 in6.2 miVariable2.3 mphScattered Clouds
3:50 AM62.6 °F60.8 °F94 %29.95 in6.2 miVariable3.5 mphScattered Clouds
4:20 AM62.6 °F60.8 °F94 %29.95 in6.2 miSE (140°)4.6 mphScattered Clouds
4:50 AM62.6 °F60.8 °F94 %29.95 in6.2 miVariable3.5 mphScattered Clouds
5:20 AM62.6 °F60.8 °F94 %29.95 in6.2 miVariable3.5 mphScattered Clouds
5:50 AM62.6 °F60.8 °F94 %29.92 in6.2 miVariable3.5 mphScattered Clouds
6:20 AM62.6 °F60.8 °F94 %29.95 in6.2 miVariable3.5 mphScattered Clouds
6:50 AM60.8 °F60.8 °F100 %29.95 in6.2 miVariable3.5 mphScattered Clouds
7:20 AM60.8 °F60.8 °F100 %29.95 in6.2 miVariable3.5 mphScattered Clouds
7:50 AM62.6 °F62.6 °F100 %29.95 in6.2 miVariable3.5 mphScattered Clouds
8:20 AM62.6 °F62.6 °F100 %29.95 in6.2 miVariable3.5 mphScattered Clouds
8:50 AM62.6 °F62.6 °F100 %29.95 in6.2 miVariable3.5 mphOvercast
9:20 AM62.6 °F62.6 °F100 %29.95 in6.2 miVariable3.5 mphMostly Cloudy
9:50 AM62.6 °F62.6 °F100 %29.98 in6.2 miVariable3.5 mphMostly Cloudy
10:20 AM62.6 °F62.6 °F100 %29.98 in6.2 miVariable3.5 mphMostly Cloudy
10:50 AM64.4 °F64.4 °F100 %29.95 in6.2 miSE (130°)4.6 mphScattered Clouds
11:20 AM64.4 °F64.4 °F100 %29.95 in6.2 miSE (130°)4.6 mphScattered Clouds
11:50 AM66.2 °F62.6 °F88 %29.95 in6.2 miESE (110°)6.9 mphScattered Clouds
12:20 PM66.2 °F62.6 °F88 %29.95 in6.2 miSE (130°)8.1 mphScattered Clouds
12:50 PM66.2 °F62.6 °F88 %29.95 in6.2 miSE (130°)9.2 mphScattered Clouds
1:20 PM66.2 °F62.6 °F88 %29.95 in6.2 miESE (120°)8.1 mphScattered Clouds
1:50 PM66.2 °F62.6 °F88 %29.95 in6.2 miESE (120°)8.1 mphScattered Clouds
2:20 PM64.4 °F60.8 °F88 %29.95 in6.2 miESE (120°)8.1 mphScattered Clouds
2:50 PM64.4 °F60.8 °F88 %29.95 in6.2 miESE (120°)8.1 mphScattered Clouds
3:20 PM64.4 °F62.6 °F94 %29.95 in6.2 miESE (120°)8.1 mphMostly Cloudy
3:50 PM64.4 °F60.8 °F88 %29.95 in6.2 miVariable3.5 mphMostly Cloudy
4:20 PM62.6 °F59.0 °F88 %29.95 in6.2 miCalmMostly Cloudy
4:50 PM62.6 °F62.6 °F100 %29.95 in6.2 miVariable1.2 mphMostly Cloudy
5:20 PM62.6 °F62.6 °F100 %29.95 in6.2 miVariable2.3 mphMostly Cloudy
5:50 PM60.8 °F60.8 °F100 %29.95 in6.2 miWest (260°)2.3 mphMostly Cloudy
6:20 PM59.0 °F59.0 °F100 %29.95 in6.2 miWest (280°)2.3 mphMostly Cloudy
6:50 PM59.0 °F59.0 °F100 %29.95 in6.2 miWNW (290°)4.6 mphScattered Clouds
7:20 PM59.0 °F59.0 °F100 %29.95 in6.2 miVariable2.3 mphScattered Clouds
7:50 PM59.0 °F59.0 °F100 %29.95 in6.2 miVariable3.5 mphScattered Clouds
8:20 PM59.0 °F59.0 °F100 %29.98 in6.2 miSSW (210°)4.6 mphRainRain
8:50 PM60.8 °F60.8 °F100 %29.98 in6.2 miVariable1.2 mphLight Drizzle
9:20 PM60.8 °F60.8 °F100 %29.98 in6.2 miVariable3.5 mphLight Drizzle
9:50 PM59.0 °F59.0 °F100 %29.98 in6.2 miWest (260°)4.6 mphScattered Clouds
10:20 PM60.8 °F60.8 °F100 %29.98 in6.2 miWNW (300°)4.6 mphScattered Clouds
10:50 PM60.8 °F60.8 °F100 %29.98 in6.2 miWest (260°)4.6 mphScattered Clouds
11:20 PM60.8 °F60.8 °F100 %29.98 in6.2 miWest (260°)4.6 mphScattered Clouds
11:50 PM60.8 °F60.8 °F100 %29.98 in6.2 miWNW (290°)4.6 mphScattered Clouds
Hourly data recorded from LIBD, located miles away from Bari, Italy







STORIES FROM OUR PARTNERS